When you browse on this site, cookies collect data to enhance your experience and personalize the content and advertising you see.
Visit our Privacy Policy to learn more. By continuing to use the site, you agree to this use of cookies and data.
  • In Austria
  • List of Countries
  • For 7 days
  • Water Temperature
  • Satellite Maps
  • Weather Map
  • News
  • Weather Widgets
  • user-avatar
    Login

    Hourly Weather Morohorovo

    Today, 23 May, Thursday

    Time Temperature Precipitation Wind Pressure Humidity
    00:00 +15°C° 0 mm 1 mps 744 mmHg 83%
    01:00 +14°C° 0 mm 1 mps 744 mmHg 84%
    02:00 +14°C° 0 mm 1 mps 744 mmHg 84%
    03:00 +14°C° 0 mm 1 mps 744 mmHg 84%
    04:00 +14°C° 0 mm 1 mps 744 mmHg 84%
    05:00 +14°C° 0 mm 1 mps 744 mmHg 84%
    06:00 +16°C° 0 mm 1 mps 744 mmHg 77%
    07:00 +20°C° 0 mm 1 mps 744 mmHg 70%
    08:00 +22°C° 0 mm 1 mps 744 mmHg 63%
    09:00 +23°C° 0.4 mm 1 mps 744 mmHg 60%
    10:00 +24°C° 0.4 mm 1 mps 744 mmHg 57%
    11:00 +25°C° 0.4 mm 1 mps 744 mmHg 54%
    12:00 +26°C° 0.1 mm 1 mps 744 mmHg 51%
    13:00 +26°C° 0.1 mm 1 mps 744 mmHg 48%
    14:00 +27°C° 0.1 mm 1 mps 744 mmHg 45%
    15:00 +26°C° 0 mm 1 mps 744 mmHg 47%
    16:00 +26°C° 0 mm 1 mps 744 mmHg 49%
    17:00 +26°C° 0 mm 1 mps 744 mmHg 50%
    18:00 +24°C° 0 mm 1 mps 744 mmHg 56%
    19:00 +22°C° 0 mm 1 mps 744 mmHg 62%
    20:00 +21°C° 0 mm 1 mps 744 mmHg 68%
    21:00 +20°C° 0.1 mm 1 mps 744 mmHg 72%
    22:00 +19°C° 0.1 mm 1 mps 744 mmHg 76%
    23:00 +18°C° 0.1 mm 1 mps 744 mmHg 80%

    Tomorrow, 24 May, Friday

    Time Temperature Precipitation Wind Pressure Humidity
    00:00 +16°C° 0 mm 1 mps 744 mmHg 81%
    01:00 +16°C° 0 mm 1 mps 744 mmHg 82%
    02:00 +16°C° 0 mm 1 mps 744 mmHg 83%
    03:00 +16°C° 0 mm 1 mps 744 mmHg 84%
    04:00 +15°C° 0 mm 1 mps 744 mmHg 85%
    05:00 +14°C° 0 mm 0 mps 744 mmHg 86%
    06:00 +18°C° 0 mm 1 mps 745 mmHg 80%
    07:00 +20°C° 0 mm 1 mps 745 mmHg 73%
    08:00 +23°C° 0 mm 1 mps 745 mmHg 67%
    09:00 +23°C° 0.7 mm 1 mps 745 mmHg 64%
    10:00 +24°C° 0.7 mm 1 mps 745 mmHg 62%
    11:00 +25°C° 0.7 mm 1 mps 744 mmHg 59%
    12:00 +26°C° 0 mm 1 mps 744 mmHg 55%
    13:00 +27°C° 0 mm 1 mps 744 mmHg 50%
    14:00 +28°C° 0 mm 2 mps 744 mmHg 46%
    15:00 +26°C° 0.8 mm 2 mps 744 mmHg 54%
    16:00 +25°C° 0.8 mm 2 mps 744 mmHg 61%
    17:00 +24°C° 0.8 mm 2 mps 743 mmHg 69%
    18:00 +23°C° 0.6 mm 2 mps 743 mmHg 76%
    19:00 +20°C° 0.6 mm 2 mps 743 mmHg 83%
    20:00 +19°C° 0.6 mm 2 mps 743 mmHg 90%
    21:00 +18°C° 0.7 mm 2 mps 743 mmHg 91%
    22:00 +17°C° 0.7 mm 2 mps 743 mmHg 93%
    23:00 +16°C° 0.7 mm 2 mps 743 mmHg 95%

    Day after tomorrow, 25 May, Saturday

    Time Temperature Precipitation Wind Pressure Humidity
    00:00 +16°C° 0.1 mm 1 mps 743 mmHg 95%
    01:00 +16°C° 0.1 mm 1 mps 743 mmHg 95%
    02:00 +16°C° 0.1 mm 1 mps 743 mmHg 96%
    03:00 +15°C° 0 mm 1 mps 743 mmHg 96%
    04:00 +15°C° 0 mm 1 mps 743 mmHg 96%
    05:00 +15°C° 0 mm 2 mps 743 mmHg 96%
    06:00 +17°C° 0 mm 2 mps 743 mmHg 92%
    07:00 +18°C° 0 mm 2 mps 743 mmHg 88%
    08:00 +19°C° 0 mm 2 mps 743 mmHg 84%
    09:00 +20°C° 0.6 mm 2 mps 743 mmHg 79%
    10:00 +21°C° 0.6 mm 3 mps 743 mmHg 74%
    11:00 +22°C° 0.6 mm 4 mps 743 mmHg 69%
    12:00 +23°C° 0.4 mm 4 mps 743 mmHg 65%
    13:00 +23°C° 0.4 mm 4 mps 743 mmHg 62%
    14:00 +25°C° 0.4 mm 4 mps 743 mmHg 58%
    15:00 +23°C° 0 mm 4 mps 743 mmHg 58%
    16:00 +23°C° 0 mm 4 mps 743 mmHg 58%
    17:00 +23°C° 0 mm 4 mps 742 mmHg 58%
    18:00 +21°C° 0 mm 3 mps 742 mmHg 63%
    19:00 +19°C° 0 mm 3 mps 743 mmHg 69%
    20:00 +17°C° 0 mm 2 mps 743 mmHg 74%
    21:00 +16°C° 0 mm 2 mps 743 mmHg 77%
    22:00 +15°C° 0 mm 2 mps 743 mmHg 81%
    23:00 +14°C° 0 mm 2 mps 743 mmHg 84%

    26 May, Sunday

    Time Temperature Precipitation Wind Pressure Humidity
    00:00 +14°C° 0 mm 2 mps 744 mmHg 87%
    01:00 +13°C° 0 mm 2 mps 744 mmHg 90%
    02:00 +13°C° 0 mm 2 mps 744 mmHg 93%
    03:00 +13°C° 0 mm 2 mps 744 mmHg 93%
    04:00 +12°C° 0 mm 2 mps 744 mmHg 94%
    05:00 +12°C° 0 mm 2 mps 744 mmHg 95%
    06:00 +14°C° 0 mm 2 mps 744 mmHg 86%
    07:00 +15°C° 0 mm 2 mps 745 mmHg 77%
    08:00 +17°C° 0 mm 2 mps 745 mmHg 68%
    09:00 +18°C° 0 mm 3 mps 745 mmHg 63%
    10:00 +19°C° 0 mm 3 mps 745 mmHg 58%
    11:00 +20°C° 0 mm 3 mps 744 mmHg 53%
    12:00 +21°C° 0 mm 4 mps 744 mmHg 51%
    13:00 +21°C° 0 mm 4 mps 744 mmHg 50%
    14:00 +22°C° 0 mm 5 mps 744 mmHg 48%
    15:00 +22°C° 0 mm 5 mps 744 mmHg 49%
    16:00 +21°C° 0 mm 5 mps 744 mmHg 51%
    17:00 +21°C° 0 mm 5 mps 743 mmHg 52%
    18:00 +20°C° 0.1 mm 4 mps 743 mmHg 61%
    19:00 +18°C° 0.1 mm 3 mps 743 mmHg 69%
    20:00 +16°C° 0.1 mm 3 mps 743 mmHg 78%
    21:00 +16°C° 0 mm 3 mps 743 mmHg 82%
    22:00 +15°C° 0 mm 2 mps 744 mmHg 86%
    23:00 +14°C° 0 mm 2 mps 744 mmHg 90%

    27 May, Monday

    Time Temperature Precipitation Wind Pressure Humidity
    00:00 +13°C° 0 mm 2 mps 744 mmHg 91%
    01:00 +13°C° 0 mm 2 mps 745 mmHg 92%
    02:00 +12°C° 0 mm 2 mps 745 mmHg 94%
    03:00 +12°C° 0 mm 2 mps 745 mmHg 93%
    04:00 +11°C° 0 mm 3 mps 745 mmHg 92%
    05:00 +10°C° 0 mm 3 mps 746 mmHg 90%
    06:00 +12°C° 0 mm 3 mps 746 mmHg 81%
    07:00 +13°C° 0 mm 4 mps 746 mmHg 72%
    08:00 +15°C° 0 mm 4 mps 746 mmHg 63%
    09:00 +17°C° 0 mm 4 mps 747 mmHg 60%
    10:00 +18°C° 0 mm 4 mps 747 mmHg 57%
    11:00 +19°C° 0 mm 4 mps 747 mmHg 54%
    12:00 +20°C° 0 mm 4 mps 747 mmHg 54%
    13:00 +21°C° 0 mm 4 mps 747 mmHg 53%
    14:00 +22°C° 0 mm 4 mps 747 mmHg 52%
    15:00 +22°C° 0 mm 3 mps 746 mmHg 53%
    16:00 +22°C° 0 mm 3 mps 746 mmHg 54%
    17:00 +23°C° 0 mm 2 mps 746 mmHg 55%
    18:00 +20°C° 0 mm 2 mps 746 mmHg 62%
    19:00 +20°C° 0 mm 1 mps 746 mmHg 69%
    20:00 +18°C° 0 mm 1 mps 746 mmHg 75%
    21:00 +16°C° 0 mm 1 mps 746 mmHg 77%
    22:00 +16°C° 0 mm 2 mps 746 mmHg 78%
    23:00 +15°C° 0 mm 2 mps 746 mmHg 80%

    28 May, Tuesday

    Time Temperature Precipitation Wind Pressure Humidity
    00:00 +16°C° 0 mm 2 mps 746 mmHg 79%
    01:00 +16°C° 0 mm 3 mps 746 mmHg 78%
    02:00 +16°C° 0 mm 3 mps 745 mmHg 77%
    03:00 +16°C° 0.6 mm 3 mps 745 mmHg 82%
    04:00 +16°C° 0.6 mm 3 mps 744 mmHg 88%
    05:00 +15°C° 0.6 mm 4 mps 744 mmHg 93%
    06:00 +17°C° 2.3 mm 4 mps 744 mmHg 94%
    07:00 +17°C° 2.3 mm 4 mps 743 mmHg 95%
    08:00 +18°C° 2.3 mm 4 mps 743 mmHg 95%
    09:00 +20°C° 0 mm 5 mps 743 mmHg 85%
    10:00 +22°C° 0 mm 5 mps 742 mmHg 75%
    11:00 +25°C° 0 mm 5 mps 742 mmHg 65%
    12:00 +26°C° 0.1 mm 6 mps 742 mmHg 64%
    13:00 +26°C° 0.1 mm 6 mps 742 mmHg 62%
    14:00 +27°C° 0.1 mm 6 mps 742 mmHg 60%
    15:00 +26°C° 1.8 mm 5 mps 742 mmHg 68%
    16:00 +25°C° 1.8 mm 5 mps 741 mmHg 76%
    17:00 +22°C° 1.8 mm 4 mps 741 mmHg 84%
    18:00 +21°C° 1.1 mm 4 mps 741 mmHg 87%
    19:00 +21°C° 1.1 mm 3 mps 741 mmHg 89%
    20:00 +20°C° 1.1 mm 3 mps 741 mmHg 91%
    21:00 +20°C° 0.1 mm 3 mps 741 mmHg 92%
    22:00 +19°C° 0.1 mm 3 mps 741 mmHg 93%
    23:00 +19°C° 0.1 mm 3 mps 742 mmHg 94%
    Show more